FW9022 Weather Reports


Display with metric or nautical units.
time (UTC)temp
F
wind
direction
speed
MPH
gust
MPH
rain 1hr
in
rain 24hr
in
rain mn
in
humidity
%
barometer
mb
20260509185831 75 248 1.0 4.0 0.00 0.00 0.00 50 1009.4
20260509184824 75 340 0.0 3.0 0.00 0.00 0.00 51 1009.4
20260509183837 74 19 0.0 4.0 0.00 0.00 0.00 52 1009.5
20260509182831 75 360 2.0 5.0 0.00 0.00 0.00 49 1010.2
20260509181828 78 277 1.0 7.0 0.00 0.00 0.00 47 1010.2
20260509180833 77 223 0.0 4.0 0.00 0.00 0.00 46 1010.3
20260509175853 75 250 1.0 4.0 0.00 0.00 0.00 49 1010.5
20260509174829 75 329 1.0 3.0 0.00 0.00 0.00 48 1010.5
20260509173823 74 329 2.0 4.0 0.00 0.00 0.00 49 1010.6
20260509172837 74 132 1.0 5.0 0.00 0.00 0.00 53 1010.1
20260509171831 72 338 0.0 3.0 0.00 0.00 0.00 55 1010.1
20260509170840 71 38 1.0 3.0 0.00 0.00 0.00 58 1010.3
20260509165839 71 32 2.0 4.0 0.00 0.00 0.00 57 1010.6
20260509164832 70 115 2.0 8.0 0.00 0.00 0.00 60 1010.6
20260509163826 70 128 4.0 6.0 0.00 0.00 0.00 60 1010.8
20260509162823 70 98 2.0 5.0 0.00 0.00 0.00 61 1011.0
20260509161837 69 72 2.0 4.0 0.00 0.00 0.00 61 1011.0
20260509160841 69 125 2.0 7.0 0.00 0.00 0.00 63 1011.2
20260509155824 69 51 1.0 5.0 0.00 0.00 0.00 62 1011.1
20260509154838 68 133 2.0 5.0 0.00 0.00 0.00 62 1011.1
20260509153831 68 180 1.0 7.0 0.00 0.00 0.00 63 1011.0
20260509152825 69 106 1.0 4.0 0.00 0.00 0.00 63 1011.1
20260509151844 68 115 4.0 7.0 0.00 0.00 0.00 61 1011.1
20260509150847 68 119 2.0 4.0 0.00 0.00 0.00 63 1011.1
20260509145847 66 201 1.0 5.0 0.00 0.00 0.00 63 1011.0
20260509144819 65 125 2.0 4.0 0.00 0.00 0.00 67 1011.0
20260509143857 64 138 0.0 2.0 0.00 0.00 0.00 68 1011.2
20260509142850 64 138 0.0 3.0 0.00 0.00 0.00 71 1011.1
20260509141824 63 179 0.0 2.0 0.00 0.00 0.00 71 1011.1
20260509140909 63 179 0.0 3.0 0.00 0.00 0.00 74 1011.2
20260509135832 62 159 1.0 3.0 0.00 0.00 0.00 77 1011.5
20260509134826 61 134 0.0 1.0 0.00 0.00 0.00 78 1011.5
20260509133820 60 134 0.0 2.0 0.00 0.00 0.00 80 1011.8
20260509132833 59 134 0.0 1.0 0.00 0.00 0.00 83 1011.8
20260509131831 57 133 0.0 1.0 0.00 0.00 0.00 85 1011.8
20260509130836 55 133 0.0 2.0 0.00 0.00 0.00 87 1012.0
20260509125836 54 209 0.0 1.0 0.00 0.00 0.00 91 1011.4
20260509124835 53 209 0.0 1.0 0.00 0.00 0.00 94 1011.4
20260509123829 51 209 0.0 0.0 0.00 0.00 0.00 95 1011.5
20260509122823 50 209 0.0 1.0 0.00 0.00 0.00 96 1011.8
20260509121833 50 209 0.0 0.0 0.00 0.00 0.00 97 1011.8
20260509120837 49 209 0.0 0.0 0.00 0.00 0.00 97 1011.9
20260509115837 48 209 0.0 0.0 0.00 0.00 0.00 97 1012.4
20260509114852 47 209 0.0 0.0 0.00 0.00 0.00 97 1012.4
20260509113829 46 209 0.0 0.0 0.00 0.00 0.00 96 1012.2
20260509112824 46 209 0.0 0.0 0.00 0.00 0.00 97 1012.2
20260509111838 46 209 0.0 0.0 0.00 0.00 0.00 96 1012.2
20260509110843 45 209 0.0 0.0 0.00 0.00 0.00 96 1012.1
20260509105848 45 209 0.0 1.0 0.00 0.00 0.00 96 1012.0
20260509104820 45 209 0.0 2.0 0.00 0.00 0.00 96 1012.0
20260509103855 45 207 0.0 0.0 0.00 0.00 0.00 96 1011.6
20260509102828 45 207 0.0 0.0 0.00 0.00 0.00 96 1011.9
20260509101825 45 207 0.0 0.0 0.00 0.00 0.00 96 1011.9
20260509100851 45 207 0.0 0.0 0.00 0.00 0.00 96 1012.6
20260509095830 45 207 0.0 1.0 0.00 0.00 0.00 96 1012.5
20260509094824 45 207 0.0 1.0 0.00 0.00 0.00 95 1012.5
20260509093822 45 207 0.0 0.0 0.00 0.00 0.00 96 1012.1
20260509092837 45 207 0.0 0.0 0.00 0.00 0.00 96 1012.1
20260509091831 45 207 0.0 1.0 0.00 0.00 0.00 96 1012.1
20260509090841 45 207 0.0 1.0 0.00 0.00 0.00 96 1012.3
20260509085821 45 207 0.0 0.0 0.00 0.00 0.00 95 1012.1
20260509084835 45 207 0.0 0.0 0.00 0.00 0.00 96 1012.1
20260509083829 45 207 0.0 0.0 0.00 0.00 0.00 95 1012.1
20260509082827 45 207 0.0 1.0 0.00 0.00 0.00 95 1012.5
20260509081821 45 207 0.0 0.0 0.00 0.00 0.00 95 1012.5
20260509080846 46 207 0.0 0.0 0.00 0.00 0.00 95 1012.6
20260509075831 45 207 0.0 0.0 0.00 0.00 0.00 95 1012.4
20260509074824 45 207 0.0 0.0 0.00 0.00 0.00 95 1012.4
20260509073859 46 207 0.0 0.0 0.00 0.00 0.00 95 1012.2
20260509072832 46 207 0.0 1.0 0.00 0.00 0.00 95 1012.4
20260509071851 46 207 0.0 0.0 0.00 0.00 0.00 95 1012.4
20260509070835 47 207 0.0 0.0 0.00 0.00 0.00 95 1012.8
20260509065835 47 207 0.0 1.0 0.00 0.00 0.00 95 1013.0
20260509064849 47 207 0.0 0.0 0.00 0.00 0.00 95 1013.0
20260509063826 47 207 0.0 0.0 0.00 0.00 0.00 94 1013.0
20260509062821 48 207 0.0 0.0 0.00 0.00 0.00 94 1013.3
20260509061835 48 207 0.0 0.0 0.00 0.00 0.00 94 1013.3
20260509060844 48 207 0.0 0.0 0.00 0.00 0.00 94 1013.6
20260509055825 49 207 0.0 0.0 0.00 0.00 0.00 94 1013.6
20260509054819 49 207 0.0 0.0 0.00 0.00 0.00 94 1013.6
20260509053833 49 207 0.0 0.0 0.00 0.00 0.00 93 1013.7
20260509052831 50 207 0.0 0.0 0.00 0.00 0.00 94 1013.9
20260509051826 50 207 0.0 3.0 0.00 0.00 0.00 93 1013.9
20260509050831 50 142 0.0 1.0 0.00 0.00 0.00 93 1014.1
20260509045835 50 143 0.0 0.0 0.00 0.00 0.00 92 1013.9
20260509044830 51 143 0.0 0.0 0.00 0.00 0.00 92 1013.9
20260509043844 51 143 0.0 0.0 0.00 0.00 0.00 92 1013.9
20260509042817 51 142 0.0 0.0 0.00 0.00 0.00 92 1014.2
20260509041855 51 143 0.0 0.0 0.00 0.00 0.00 92 1014.2
20260509040838 52 142 0.0 0.0 0.00 0.00 0.00 92 1014.4
20260509035818 52 143 0.0 0.0 0.00 0.00 0.00 91 1014.3
20260509034832 52 143 0.0 0.0 0.00 0.00 0.00 91 1014.3
20260509033850 52 143 0.0 0.0 0.00 0.00 0.00 90 1014.5
20260509032823 52 143 0.0 0.0 0.00 0.00 0.00 90 1014.3
20260509031837 53 143 0.0 0.0 0.00 0.00 0.00 89 1014.3
20260509030842 53 143 0.0 1.0 0.00 0.00 0.00 89 1014.5
20260509025827 54 143 0.0 0.0 0.00 0.00 0.00 88 1014.4
20260509024821 54 142 0.0 0.0 0.00 0.00 0.00 87 1014.4
20260509023835 55 142 0.0 0.0 0.00 0.00 0.00 87 1014.1
20260509022832 55 142 0.0 0.0 0.00 0.00 0.00 85 1014.1
20260509021825 55 142 0.0 1.0 0.00 0.00 0.00 85 1014.1
20260509020851 56 142 0.0 0.0 0.00 0.00 0.00 84 1014.3
20260509015830 57 142 0.0 0.0 0.00 0.00 0.00 83 1014.2
20260509014828 57 143 0.0 0.0 0.00 0.00 0.00 82 1014.2
20260509013822 58 143 0.0 1.0 0.00 0.00 0.00 81 1013.9
20260509012836 58 143 0.0 1.0 0.00 0.00 0.00 78 1014.0
20260509011835 58 142 0.0 1.0 0.00 0.00 0.00 75 1014.0
20260509010840 59 143 0.0 0.0 0.00 0.00 0.00 76 1013.2
20260509005818 59 142 0.0 0.0 0.00 0.00 0.00 74 1013.0
20260509004831 60 143 0.0 1.0 0.00 0.00 0.00 75 1013.0
20260509003830 60 142 0.0 2.0 0.00 0.00 0.00 72 1013.6
20260509002823 61 164 0.0 2.0 0.00 0.00 0.00 71 1013.7
20260509001836 61 173 1.0 5.0 0.00 0.00 0.00 69 1013.7
20260509000846 62 186 2.0 11.0 0.00 0.00 0.00 68 1013.3
20260508235825 62 164 3.0 7.0 0.00 0.00 0.00 68 1013.1
20260508234819 62 101 3.0 7.0 0.00 0.00 0.00 67 1013.1
20260508233833 63 136 6.0 9.0 0.00 0.00 0.00 66 1013.2
20260508232832 63 205 2.0 9.0 0.00 0.00 0.00 65 1012.9
20260508231827 63 121 2.0 13.0 0.00 0.00 0.00 65 1012.9
20260508230832 64 161 2.0 16.0 0.00 0.00 0.00 64 1012.8
20260508225851 64 210 3.0 10.0 0.00 0.00 0.00 63 1012.6
20260508224828 65 211 4.0 10.0 0.00 0.00 0.00 62 1012.6
20260508223822 65 183 3.0 8.0 0.00 0.00 0.00 62 1012.7
20260508222836 65 122 6.0 16.0 0.00 0.00 0.00 61 1012.7
20260508221835 66 205 2.0 11.0 0.00 0.00 0.00 60 1012.7
20260508220839 66 170 6.0 15.0 0.00 0.00 0.00 59 1012.5
20260508215819 67 180 2.0 11.0 0.00 0.00 0.00 58 1012.4
20260508214834 67 66 3.0 11.0 0.00 0.00 0.00 58 1012.4
20260508213832 67 207 3.0 11.0 0.00 0.00 0.00 59 1012.7
20260508212826 67 182 4.0 13.0 0.00 0.00 0.00 58 1012.5
20260508211820 66 170 5.0 15.0 0.00 0.00 0.00 58 1012.5
20260508210849 66 198 8.0 14.0 0.00 0.00 0.00 58 1012.4
20260508205829 66 149 5.0 12.0 0.00 0.00 0.00 58 1012.6
20260508204823 66 242 3.0 12.0 0.00 0.00 0.00 57 1012.6
20260508203818 67 147 2.0 10.0 0.00 0.00 0.00 57 1012.7
20260508202837 66 113 5.0 12.0 0.00 0.00 0.00 57 1013.0
20260508201831 66 246 5.0 17.0 0.00 0.00 0.00 57 1013.0
20260508200854 66 118 6.0 15.0 0.00 0.00 0.00 56 1012.9
20260508195846 66 112 4.0 11.0 0.00 0.00 0.00 57 1013.5
20260508194840 66 132 4.0 10.0 0.00 0.00 0.00 58 1013.5
20260508193830 65 92 2.0 13.0 0.00 0.00 0.00 57 1013.5
20260508192843 66 136 1.0 16.0 0.00 0.00 0.00 56 1013.9
20260508191833 66 142 1.0 14.0 0.00 0.00 0.00 57 1013.9
20260508190901 66 165 2.0 13.0 0.00 0.00 0.00 56 1014.6